Tracking 19909 objects as of 21-Oct-2019
HD Live streaming from Space Station
objects crossing your sky now

HARBINGER

Track HARBINGER now!
10-day predictions


NORAD ID: 44229
Int'l Code: 2019-026E
Perigee: 505.5 km
Apogee: 516.6 km
Inclination: 40.0 °
Period: 94.7 minutes
Semi major axis: 6882 km
RCS: Unknown
Launch date: May 5, 2019
Source: United States (US)
Launch site: Rocket Lab Launch Complex (RLLC)
aabbcc
Your satellite tracking list
Your tracking list is empty




NASA's NSSDC Master Catalog

Two Line Element Set (TLE):
1 44229U 19026E   19293.53820516  .00000717  00000-0  40095-4 0  9990
2 44229  40.0213 330.4881 0008044  54.5303 305.6246 15.20647782 25618
Source of the keplerian elements: AFSPC